Time,TemperatureF,DewpointF,PressureIn,WindDirection,WindDirectionDegrees,WindSpeedMPH,WindSpeedGustMPH,Humidity,HourlyPrecipIn,Conditions,Clouds,dailyrainin,SoftwareType,DateUTC
2013-09-23 00:01:00,52.2,48.1,29.77,NNW,337,0.0,-999.0,86,-99.99,,,0.00,Acu-Link.com,2013-09-23 04:01:00,
2013-09-23 00:16:00,51.8,48.1,29.77,NNE,22,0.0,-999.0,87,-99.99,,,0.00,Acu-Link.com,2013-09-23 04:16:00,
2013-09-23 00:31:00,52.2,48.4,29.77,ENE,67,0.0,-999.0,87,-99.99,,,0.00,Acu-Link.com,2013-09-23 04:31:00,
2013-09-23 00:47:00,52.2,48.1,29.77,ENE,67,2.2,-999.0,86,-99.99,,,0.00,Acu-Link.com,2013-09-23 04:47:00,
2013-09-23 01:02:00,51.6,47.6,29.77,NE,45,1.7,-999.0,86,-99.99,,,0.00,Acu-Link.com,2013-09-23 05:02:00,
2013-09-23 01:17:00,51.6,47.6,29.77,ENE,67,0.0,-999.0,86,-99.99,,,0.00,Acu-Link.com,2013-09-23 05:17:00,
2013-09-23 01:33:00,51.1,47.4,29.78,ENE,67,2.2,-999.0,87,-99.99,,,0.00,Acu-Link.com,2013-09-23 05:33:00,
2013-09-23 01:48:00,50.7,47.3,29.78,NE,45,1.7,-999.0,88,-99.99,,,0.00,Acu-Link.com,2013-09-23 05:48:00,
2013-09-23 02:03:00,50.2,47.1,29.78,ENE,67,0.0,-999.0,89,-99.99,,,0.00,Acu-Link.com,2013-09-23 06:03:00,
2013-09-23 02:19:00,49.8,47.0,29.78,ENE,67,0.0,-999.0,90,-99.99,,,0.00,Acu-Link.com,2013-09-23 06:19:00,
2013-09-23 02:34:00,49.6,46.8,29.78,ENE,67,0.0,-999.0,90,-99.99,,,0.00,Acu-Link.com,2013-09-23 06:34:00,
2013-09-23 02:49:00,49.3,47.1,29.78,NE,45,0.0,-999.0,92,-99.99,,,0.00,Acu-Link.com,2013-09-23 06:49:00,
2013-09-23 03:04:00,49.1,46.9,29.78,ENE,67,0.0,-999.0,92,-99.99,,,0.00,Acu-Link.com,2013-09-23 07:04:00,
2013-09-23 03:20:00,48.9,47.0,29.78,East,90,2.2,-999.0,93,-99.99,,,0.00,Acu-Link.com,2013-09-23 07:20:00,
2013-09-23 03:35:00,48.6,46.7,29.78,ENE,67,2.2,-999.0,93,-99.99,,,0.00,Acu-Link.com,2013-09-23 07:35:00,
2013-09-23 03:50:00,48.4,46.8,29.78,NE,45,1.1,-999.0,94,-99.99,,,0.00,Acu-Link.com,2013-09-23 07:50:00,
2013-09-23 04:06:00,48.4,46.8,29.78,NE,45,2.2,-999.0,94,-99.99,,,0.00,Acu-Link.com,2013-09-23 08:06:00,
2013-09-23 04:21:00,48.4,46.8,29.78,ENE,67,2.2,-999.0,94,-99.99,,,0.00,Acu-Link.com,2013-09-23 08:21:00,
2013-09-23 04:37:00,48.2,46.6,29.78,NE,45,1.1,-999.0,94,-99.99,,,0.00,Acu-Link.com,2013-09-23 08:37:00,
2013-09-23 04:52:00,48.2,46.6,29.79,NE,45,1.7,-999.0,94,-99.99,,,0.00,Acu-Link.com,2013-09-23 08:52:00,
2013-09-23 05:07:00,48.0,46.6,29.79,ENE,67,1.7,-999.0,95,-99.99,,,0.00,Acu-Link.com,2013-09-23 09:07:00,
2013-09-23 05:22:00,47.7,46.6,29.79,NE,45,1.1,-999.0,96,-99.99,,,0.00,Acu-Link.com,2013-09-23 09:22:00,
2013-09-23 05:37:00,47.7,46.9,29.80,East,90,2.7,-999.0,97,-99.99,,,0.00,Acu-Link.com,2013-09-23 09:37:00,
2013-09-23 05:52:00,47.5,47.0,29.81,East,90,0.0,-999.0,98,-99.99,,,0.00,Acu-Link.com,2013-09-23 09:52:00,
2013-09-23 06:08:00,47.1,46.6,29.82,ENE,67,0.0,-999.0,98,-99.99,,,0.00,Acu-Link.com,2013-09-23 10:08:00,
2013-09-23 06:23:00,47.1,46.8,29.81,NE,45,2.2,-999.0,99,-99.99,,,0.00,Acu-Link.com,2013-09-23 10:23:00,
2013-09-23 06:38:00,47.1,46.8,29.82,NE,45,2.2,-999.0,99,-99.99,,,0.00,Acu-Link.com,2013-09-23 10:38:00,
2013-09-23 06:53:00,47.1,46.8,29.83,NNE,22,1.1,-999.0,99,-99.99,,,0.00,Acu-Link.com,2013-09-23 10:53:00,
2013-09-23 07:09:00,46.8,46.5,29.84,NE,45,1.1,-999.0,99,-99.99,,,0.00,Acu-Link.com,2013-09-23 11:09:00,
2013-09-23 07:24:00,46.6,46.3,29.84,NNE,22,1.1,-999.0,99,-99.99,,,0.00,Acu-Link.com,2013-09-23 11:24:00,
2013-09-23 07:39:00,46.4,46.1,29.84,ENE,67,1.7,-999.0,99,-99.99,,,0.00,Acu-Link.com,2013-09-23 11:39:00,
2013-09-23 07:54:00,46.9,46.6,29.85,NE,45,2.2,-999.0,99,-99.99,,,0.00,Acu-Link.com,2013-09-23 11:54:00,
2013-09-23 08:10:00,47.5,47.2,29.85,ESE,112,2.2,-999.0,99,-99.99,,,0.00,Acu-Link.com,2013-09-23 12:10:00,
2013-09-23 08:25:00,48.6,48.1,29.85,NNE,22,1.7,-999.0,98,-99.99,,,0.00,Acu-Link.com,2013-09-23 12:25:00,
2013-09-23 08:40:00,49.6,48.8,29.86,East,90,1.7,-999.0,97,-99.99,,,0.00,Acu-Link.com,2013-09-23 12:40:00,
2013-09-23 08:55:00,50.7,49.6,29.86,NNE,22,1.7,-999.0,96,-99.99,,,0.00,Acu-Link.com,2013-09-23 12:55:00,
2013-09-23 09:10:00,52.5,50.8,29.86,NE,45,2.7,-999.0,94,-99.99,,,0.00,Acu-Link.com,2013-09-23 13:10:00,
2013-09-23 09:26:00,53.4,51.1,29.86,ENE,67,3.7,-999.0,92,-99.99,,,0.00,Acu-Link.com,2013-09-23 13:26:00,
2013-09-23 09:41:00,54.7,52.1,29.86,North,0,3.7,-999.0,91,-99.99,,,0.00,Acu-Link.com,2013-09-23 13:41:00,
2013-09-23 09:56:00,55.9,52.7,29.86,NE,45,5.3,-999.0,89,-99.99,,,0.00,Acu-Link.com,2013-09-23 13:56:00,
2013-09-23 10:11:00,56.8,52.7,29.86,ENE,67,3.2,-999.0,86,-99.99,,,0.00,Acu-Link.com,2013-09-23 14:11:00,
2013-09-23 10:26:00,58.1,53.6,29.87,SW,225,1.1,-999.0,85,-99.99,,,0.00,Acu-Link.com,2013-09-23 14:26:00,
2013-09-23 10:42:00,59.5,52.6,29.86,NE,45,4.7,-999.0,78,-99.99,,,0.00,Acu-Link.com,2013-09-23 14:42:00,
2013-09-23 10:57:00,60.4,52.4,29.87,NE,45,2.2,-999.0,75,-99.99,,,0.00,Acu-Link.com,2013-09-23 14:57:00,
2013-09-23 11:12:00,61.3,52.2,29.87,NE,45,7.3,-999.0,72,-99.99,,,0.00,Acu-Link.com,2013-09-23 15:12:00,
2013-09-23 11:27:00,62.1,51.8,29.87,East,90,5.8,-999.0,69,-99.99,,,0.00,Acu-Link.com,2013-09-23 15:27:00,
2013-09-23 11:42:00,63.1,53.2,29.87,NNE,22,1.7,-999.0,70,-99.99,,,0.00,Acu-Link.com,2013-09-23 15:42:00,
2013-09-23 11:57:00,63.7,52.9,29.87,NE,45,3.2,-999.0,68,-99.99,,,0.00,Acu-Link.com,2013-09-23 15:57:00,
2013-09-23 12:13:00,64.4,52.4,29.87,NE,45,3.7,-999.0,65,-99.99,,,0.00,Acu-Link.com,2013-09-23 16:13:00,
2013-09-23 12:28:00,66.6,54.0,29.86,ESE,112,4.2,-999.0,64,-99.99,,,0.00,Acu-Link.com,2013-09-23 16:28:00,
2013-09-23 12:43:00,65.8,52.4,29.85,NE,45,2.7,-999.0,62,-99.99,,,0.00,Acu-Link.com,2013-09-23 16:43:00,
2013-09-23 12:58:00,66.4,54.3,29.85,West,270,3.7,-999.0,65,-99.99,,,0.00,Acu-Link.com,2013-09-23 16:58:00,
2013-09-23 13:14:00,65.8,51.5,29.85,WNW,292,4.7,-999.0,60,-99.99,,,0.00,Acu-Link.com,2013-09-23 17:14:00,
2013-09-23 13:29:00,66.9,52.6,29.84,NE,45,4.7,-999.0,60,-99.99,,,0.00,Acu-Link.com,2013-09-23 17:29:00,
2013-09-23 13:44:00,68.0,53.1,29.84,ENE,67,5.3,-999.0,59,-99.99,,,0.00,Acu-Link.com,2013-09-23 17:44:00,
2013-09-23 14:00:00,67.1,50.9,29.83,ESE,112,5.3,-999.0,56,-99.99,,,0.00,Acu-Link.com,2013-09-23 18:00:00,
2013-09-23 14:15:00,67.6,52.3,29.83,NNE,22,4.2,-999.0,58,-99.99,,,0.00,Acu-Link.com,2013-09-23 18:15:00,
2013-09-23 14:30:00,68.4,52.1,29.83,NE,45,2.2,-999.0,56,-99.99,,,0.00,Acu-Link.com,2013-09-23 18:30:00,
2013-09-23 14:45:00,69.4,52.5,29.83,NNE,22,6.8,-999.0,55,-99.99,,,0.00,Acu-Link.com,2013-09-23 18:45:00,
2013-09-23 15:15:00,68.7,51.4,29.82,NNE,22,3.7,-999.0,54,-99.99,,,0.00,Acu-Link.com,2013-09-23 19:15:00,
2013-09-23 15:31:00,69.1,52.7,29.81,NW,315,3.2,-999.0,56,-99.99,,,0.00,Acu-Link.com,2013-09-23 19:31:00,
2013-09-23 15:46:00,69.3,51.9,29.81,NE,45,3.2,-999.0,54,-99.99,,,0.00,Acu-Link.com,2013-09-23 19:46:00,
2013-09-23 16:01:00,68.9,52.1,29.81,NE,45,4.7,-999.0,55,-99.99,,,0.00,Acu-Link.com,2013-09-23 20:01:00,
2013-09-23 16:16:00,69.3,51.9,29.81,East,90,4.7,-999.0,54,-99.99,,,0.00,Acu-Link.com,2013-09-23 20:16:00,
2013-09-23 16:32:00,69.1,52.2,29.80,East,90,6.3,-999.0,55,-99.99,,,0.00,Acu-Link.com,2013-09-23 20:32:00,
2013-09-23 16:47:00,69.3,51.4,29.80,NE,45,4.2,-999.0,53,-99.99,,,0.00,Acu-Link.com,2013-09-23 20:47:00,
2013-09-23 17:02:00,69.4,52.0,29.80,NNE,22,3.7,-999.0,54,-99.99,,,0.00,Acu-Link.com,2013-09-23 21:02:00,
2013-09-23 17:17:00,69.1,51.7,29.80,East,90,4.7,-999.0,54,-99.99,,,0.00,Acu-Link.com,2013-09-23 21:17:00,
2013-09-23 17:33:00,69.6,52.7,29.80,NE,45,5.8,-999.0,55,-99.99,,,0.00,Acu-Link.com,2013-09-23 21:33:00,
2013-09-23 17:48:00,69.3,52.9,29.80,NE,45,4.7,-999.0,56,-99.99,,,0.00,Acu-Link.com,2013-09-23 21:48:00,
2013-09-23 18:03:00,68.4,51.6,29.79,NNE,22,3.2,-999.0,55,-99.99,,,0.00,Acu-Link.com,2013-09-23 22:03:00,
2013-09-23 18:18:00,68.0,50.7,29.79,NE,45,2.7,-999.0,54,-99.99,,,0.00,Acu-Link.com,2013-09-23 22:18:00,
2013-09-23 18:48:00,66.6,51.8,29.80,NW,315,0.0,-999.0,59,-99.99,,,0.00,Acu-Link.com,2013-09-23 22:48:00,
2013-09-23 19:03:00,65.8,51.5,29.80,East,90,1.7,-999.0,60,-99.99,,,0.00,Acu-Link.com,2013-09-23 23:03:00,
2013-09-23 19:19:00,64.4,52.0,29.81,SSE,157,0.0,-999.0,64,-99.99,,,0.00,Acu-Link.com,2013-09-23 23:19:00,
2013-09-23 19:34:00,63.3,51.7,29.81,NNE,22,1.1,-999.0,66,-99.99,,,0.00,Acu-Link.com,2013-09-23 23:34:00,
2013-09-23 19:49:00,62.1,51.8,29.80,NNE,22,0.0,-999.0,69,-99.99,,,0.00,Acu-Link.com,2013-09-23 23:49:00,
2013-09-23 20:05:00,61.2,51.7,29.80,East,90,0.0,-999.0,71,-99.99,,,0.00,Acu-Link.com,2013-09-24 00:05:00,
2013-09-23 20:20:00,60.6,51.5,29.81,ENE,67,2.2,-999.0,72,-99.99,,,0.00,Acu-Link.com,2013-09-24 00:20:00,
2013-09-23 20:35:00,60.1,51.4,29.80,East,90,0.0,-999.0,73,-99.99,,,0.00,Acu-Link.com,2013-09-24 00:35:00,
2013-09-23 20:50:00,59.5,51.6,29.80,NE,45,1.7,-999.0,75,-99.99,,,0.00,Acu-Link.com,2013-09-24 00:50:00,
2013-09-23 21:05:00,58.6,51.8,29.81,NE,45,0.0,-999.0,78,-99.99,,,0.00,Acu-Link.com,2013-09-24 01:05:00,
2013-09-23 21:21:00,58.1,51.6,29.81,NE,45,0.0,-999.0,79,-99.99,,,0.00,Acu-Link.com,2013-09-24 01:21:00,
2013-09-23 21:36:00,58.1,51.6,29.81,NE,45,2.2,-999.0,79,-99.99,,,0.00,Acu-Link.com,2013-09-24 01:36:00,
2013-09-23 21:51:00,57.7,51.2,29.82,NE,45,2.7,-999.0,79,-99.99,,,0.00,Acu-Link.com,2013-09-24 01:51:00,
2013-09-23 22:06:00,57.2,51.1,29.82,ENE,67,2.7,-999.0,80,-99.99,,,0.00,Acu-Link.com,2013-09-24 02:06:00,
2013-09-23 22:22:00,57.2,51.4,29.82,ENE,67,2.7,-999.0,81,-99.99,,,0.00,Acu-Link.com,2013-09-24 02:22:00,
2013-09-23 22:37:00,57.0,50.9,29.82,ENE,67,2.7,-999.0,80,-99.99,,,0.00,Acu-Link.com,2013-09-24 02:37:00,
2013-09-23 22:53:00,56.7,50.9,29.83,ENE,67,2.7,-999.0,81,-99.99,,,0.00,Acu-Link.com,2013-09-24 02:53:00,
2013-09-23 23:08:00,55.6,50.5,29.83,NNW,337,2.7,-999.0,83,-99.99,,,0.00,Acu-Link.com,2013-09-24 03:08:00,
2013-09-23 23:23:00,55.0,50.3,29.83,NE,45,3.7,-999.0,84,-99.99,,,0.00,Acu-Link.com,2013-09-24 03:23:00,
2013-09-23 23:39:00,54.9,50.2,29.83,NE,45,2.7,-999.0,84,-99.99,,,0.00,Acu-Link.com,2013-09-24 03:39:00,
2013-09-23 23:54:00,54.9,50.2,29.83,East,90,2.7,-999.0,84,-99.99,,,0.00,Acu-Link.com,2013-09-24 03:54:00,